Prescott, AZ

5:33 AM MST on July 30, 2016 (GMT -0700)
Love

Weather History for KPRC - July, 2014

Change the Weather History Date:

Tuesday, July 15, 2014

  Actual Average Record
Temperature  
Mean Temperature 71 °F 76 °F  
Max Temperature 77 °F 90 °F 101 °F (1948)
Min Temperature 64 °F 62 °F 52 °F (2011)
Degree Days  
Heating Degree Days 0    
Month to date heating degree days 0  
Since 1 July heating degree days 0  
Cooling Degree Days 6    
Month to date cooling degree days 165  
Year to date cooling degree days 471  
Growing Degree Days 20 (Base 50)    
Moisture  
Dew Point 59 °F    
Average Humidity 71    
Maximum Humidity 87    
Minimum Humidity 53    
Precipitation  
Precipitation 0.17 in 0.07 in 1.41 in (1990)
Month to date precipitation 1.09 0.77  
Year to date precipitation 2.06 5.70  
Sea Level Pressure  
Sea Level Pressure 30.02 in    
Wind  
Wind Speed 4 mph (SSW)    
Max Wind Speed 21 mph    
Max Gust Speed 26 mph    
Visibility 10 miles    
Events Rain    
T = Trace of Precipitation, MM = Missing Value Source: NWS Daily Summary

Daily Weather History Graph

Daily Weather History Graph

Search for Another Location

Airport or City:

Trip Planner

Search our weather history database for the weather conditions in past years. The results will help you decide how hot, cold, wet, or windy it might be!

Date:

Astronomy

Jul. 15, 2014 Rise Set
Actual Time 5:27 AM MST 7:43 PM MST
Civil Twilight 4:59 AM MST 8:11 PM MST
Nautical Twilight 4:23 AM MST 8:47 PM MST
Astronomical Twilight 3:45 AM MST 9:25 PM MST
Moon 10:06 PM MST (7/15) 9:15 AM MST (7/15)
Length of Visible Light 15h 12m
Length of Day
14h 15m
Waning Gibbous, 84% of the Moon is Illuminated
Jul 15
Waning Gibbous
Jul 18
Last Quarter
Jul 26
New
Aug 3
First Quarter
Aug 10
Full

Hourly Weather History & Observations

Time (MST) Temp. Dew Point Humidity Pressure Visibility Wind Dir Wind Speed Gust Speed Precip Events Conditions
12:53 AM 68.0 °F 57.9 °F 70% 29.99 in 10.0 mi South 3.5 mph - N/A   Clear
1:53 AM 68.0 °F 57.9 °F 70% 29.98 in 10.0 mi WSW 5.8 mph - N/A   Clear
2:53 AM 68.0 °F 59.0 °F 73% 30.00 in 10.0 mi WSW 3.5 mph - N/A   Clear
3:53 AM 68.0 °F 59.0 °F 73% 30.01 in 10.0 mi Calm Calm - N/A   Clear
4:53 AM 66.0 °F 59.0 °F 78% 30.02 in 10.0 mi South 3.5 mph - N/A   Clear
5:53 AM 66.9 °F 59.0 °F 76% 30.03 in 10.0 mi Calm Calm - N/A   Clear
6:53 AM 70.0 °F 59.0 °F 68% 30.04 in 10.0 mi Calm Calm - N/A   Clear
7:53 AM 71.1 °F 60.1 °F 68% 30.06 in 10.0 mi Calm Calm - N/A   Overcast
8:53 AM 71.1 °F 60.1 °F 68% 30.06 in 10.0 mi SSE 3.5 mph - 0.00 in   Overcast
9:53 AM 75.9 °F 59.0 °F 56% 30.04 in 10.0 mi WSW 5.8 mph - N/A   Mostly Cloudy
10:53 AM 71.1 °F 57.9 °F 63% 30.07 in 10.0 mi NNW 17.3 mph - N/A   Overcast
11:53 AM 66.9 °F 57.0 °F 70% 30.12 in 10.0 mi NNE 11.5 mph - 0.00 in   Mostly Cloudy
12:53 PM 64.0 °F 60.1 °F 87% 30.11 in 5.0 mi SW 5.8 mph - 0.04 in Rain Light Rain
1:53 PM 64.9 °F 61.0 °F 87% 30.05 in 10.0 mi SSW 5.8 mph - 0.11 in Rain Light Rain
2:53 PM 66.9 °F 60.1 °F 79% 30.03 in 10.0 mi Calm Calm - 0.02 in   Scattered Clouds
3:53 PM 69.1 °F 57.9 °F 68% 30.01 in 10.0 mi Calm Calm - N/A   Scattered Clouds
4:53 PM 70.0 °F 57.9 °F 65% 29.99 in 10.0 mi SSE 3.5 mph - N/A   Scattered Clouds
5:53 PM 70.0 °F 57.0 °F 63% 29.95 in 10.0 mi Calm Calm - N/A   Scattered Clouds
6:53 PM 73.0 °F 55.0 °F 53% 29.94 in 10.0 mi Calm Calm - N/A   Partly Cloudy
7:53 PM 71.1 °F 55.9 °F 59% 29.95 in 10.0 mi SSW 4.6 mph - N/A   Clear
9:53 PM 66.0 °F 60.1 °F 81% 29.99 in 10.0 mi SSW 4.6 mph - N/A   Clear
10:53 PM 66.0 °F 60.1 °F 81% 29.99 in 10.0 mi South 9.2 mph - N/A   Clear
11:53 PM 66.9 °F 57.9 °F 73% 29.99 in 10.0 mi South 9.2 mph - N/A   Clear